Time,TemperatureF,DewpointF,PressureIn,WindDirection,WindDirectionDegrees,WindSpeedMPH,WindSpeedGustMPH,Humidity,HourlyPrecipIn,Conditions,Clouds,dailyrainin,SoftwareType,DateUTC
2013-02-18 00:00:00,11.9,5.5,30.20,NNW,330,0.0,0.0,75,0.00,,,0.00,Wunderground v.1.12,2013-02-18 05:00:00,
2013-02-18 00:02:00,11.9,5.5,30.20,NNW,330,0.0,0.0,75,0.00,,,0.00,Wunderground v.1.12,2013-02-18 05:02:00,
2013-02-18 00:03:00,11.9,5.5,30.20,NNW,330,0.0,0.0,75,0.00,,,0.00,Wunderground v.1.12,2013-02-18 05:03:00,
2013-02-18 00:05:00,31.0,23.0,29.97,West,270,7.0,14.0,72,0.00,,,0.06,Wunderground v.1.12,2013-02-18 05:05:00,
2013-02-18 00:09:00,11.9,5.5,30.20,NNW,330,0.0,0.0,75,0.00,,,0.00,Wunderground v.1.12,2013-02-18 05:09:00,
2013-02-18 00:10:00,31.0,23.0,29.97,West,270,7.0,14.0,72,0.00,,,0.06,Wunderground v.1.12,2013-02-18 05:10:00,
2013-02-18 00:15:00,11.9,5.8,30.20,NNW,330,0.0,0.0,76,0.00,,,0.00,Wunderground v.1.12,2013-02-18 05:15:00,
2013-02-18 00:18:00,11.9,5.8,30.20,NNW,330,0.0,0.0,76,0.00,,,0.00,Wunderground v.1.12,2013-02-18 05:18:00,
2013-02-18 00:20:00,31.0,23.0,29.97,West,270,7.0,14.0,72,0.00,,,0.06,Wunderground v.1.12,2013-02-18 05:20:00,
2013-02-18 00:23:00,11.9,5.8,30.20,NNW,330,0.0,0.0,76,0.00,,,0.00,Wunderground v.1.12,2013-02-18 05:23:00,
2013-02-18 00:25:00,31.0,23.0,29.97,West,270,7.0,14.0,72,0.00,,,0.06,Wunderground v.1.12,2013-02-18 05:25:00,
2013-02-18 00:29:00,12.1,6.3,30.20,NNW,330,0.0,0.0,77,0.00,,,0.00,Wunderground v.1.12,2013-02-18 05:29:00,
2013-02-18 00:30:00,31.0,23.0,29.97,West,270,7.0,14.0,72,0.00,,,0.06,Wunderground v.1.12,2013-02-18 05:30:00,
2013-02-18 00:34:00,12.4,6.6,30.20,NNW,330,0.0,0.0,77,0.00,,,0.00,Wunderground v.1.12,2013-02-18 05:34:00,
2013-02-18 00:35:00,31.0,23.0,29.97,West,270,7.0,14.0,72,0.00,,,0.06,Wunderground v.1.12,2013-02-18 05:35:00,
2013-02-18 00:39:00,12.4,6.8,30.20,NNW,330,0.0,0.0,78,0.00,,,0.00,Wunderground v.1.12,2013-02-18 05:39:00,
2013-02-18 00:40:00,31.0,23.0,29.97,West,270,7.0,14.0,72,0.00,,,0.06,Wunderground v.1.12,2013-02-18 05:40:00,
2013-02-18 00:45:00,12.6,7.0,30.21,NNW,330,0.0,0.0,78,0.00,,,0.00,Wunderground v.1.12,2013-02-18 05:45:00,
2013-02-18 00:50:00,32.2,23.5,29.98,West,270,6.0,16.0,70,0.00,,,0.06,Wunderground v.1.12,2013-02-18 05:50:00,
2013-02-18 00:51:00,12.8,7.2,30.21,NNW,330,0.0,0.0,78,0.00,,,0.00,Wunderground v.1.12,2013-02-18 05:51:00,
2013-02-18 00:55:00,32.2,23.5,29.98,West,270,6.0,16.0,70,0.00,,,0.06,Wunderground v.1.12,2013-02-18 05:55:00,
2013-02-18 00:56:00,12.9,7.6,30.20,NNW,330,0.0,0.0,79,0.00,,,0.00,Wunderground v.1.12,2013-02-18 05:56:00,
2013-02-18 01:00:00,32.2,23.5,29.98,West,270,6.0,16.0,70,0.00,,,0.06,Wunderground v.1.12,2013-02-18 06:00:00,
2013-02-18 01:02:00,12.9,7.6,30.20,NNW,330,0.0,0.0,79,0.00,,,0.00,Wunderground v.1.12,2013-02-18 06:02:00,
2013-02-18 01:05:00,32.2,23.5,29.98,West,270,6.0,16.0,70,0.00,,,0.06,Wunderground v.1.12,2013-02-18 06:05:00,
2013-02-18 01:08:00,13.1,7.8,30.20,NNW,330,0.0,0.0,79,0.00,,,0.00,Wunderground v.1.12,2013-02-18 06:08:00,
2013-02-18 01:10:00,32.2,23.5,29.98,West,270,6.0,16.0,70,0.00,,,0.06,Wunderground v.1.12,2013-02-18 06:10:00,
2013-02-18 01:14:00,13.3,8.0,30.20,NNW,330,0.0,0.0,79,0.00,,,0.00,Wunderground v.1.12,2013-02-18 06:14:00,
2013-02-18 01:15:00,31.8,23.8,29.99,West,270,7.0,17.0,72,0.00,,,0.06,Wunderground v.1.12,2013-02-18 06:15:00,
2013-02-18 01:19:00,13.3,8.3,30.20,NNW,330,0.0,1.0,80,0.00,,,0.00,Wunderground v.1.12,2013-02-18 06:19:00,
2013-02-18 01:20:00,31.8,23.8,29.99,West,270,7.0,17.0,72,0.00,,,0.06,Wunderground v.1.12,2013-02-18 06:20:00,
2013-02-18 01:25:00,13.5,8.5,30.20,NNW,330,0.0,0.0,80,0.00,,,0.00,Wunderground v.1.12,2013-02-18 06:25:00,
2013-02-18 01:30:00,31.8,23.8,29.99,West,270,7.0,17.0,72,0.00,,,0.06,Wunderground v.1.12,2013-02-18 06:30:00,
2013-02-18 01:31:00,13.5,8.5,30.20,NNW,330,0.0,0.0,80,0.00,,,0.00,Wunderground v.1.12,2013-02-18 06:31:00,
2013-02-18 01:35:00,31.8,23.8,29.99,West,270,7.0,17.0,72,0.00,,,0.06,Wunderground v.1.12,2013-02-18 06:35:00,
2013-02-18 01:37:00,13.5,8.5,30.20,NNW,330,0.0,0.0,80,0.00,,,0.00,Wunderground v.1.12,2013-02-18 06:37:00,
2013-02-18 01:40:00,31.8,23.8,29.99,West,270,7.0,17.0,72,0.00,,,0.06,Wunderground v.1.12,2013-02-18 06:40:00,
2013-02-18 01:43:00,13.5,8.5,30.20,NNW,330,0.0,0.0,80,0.00,,,0.00,Wunderground v.1.12,2013-02-18 06:43:00,
2013-02-18 01:45:00,31.8,23.8,30.00,West,270,6.0,14.0,72,0.00,,,0.06,Wunderground v.1.12,2013-02-18 06:45:00,
2013-02-18 01:48:00,13.5,8.5,30.20,NNW,330,0.0,0.0,80,0.00,,,0.00,Wunderground v.1.12,2013-02-18 06:48:00,
2013-02-18 01:50:00,31.8,23.8,30.00,West,270,6.0,14.0,72,0.00,,,0.06,Wunderground v.1.12,2013-02-18 06:50:00,
2013-02-18 01:54:00,13.5,8.5,30.20,NNW,330,0.0,0.0,80,0.00,,,0.00,Wunderground v.1.12,2013-02-18 06:54:00,
2013-02-18 01:55:00,31.8,23.8,30.00,West,270,6.0,14.0,72,0.00,,,0.06,Wunderground v.1.12,2013-02-18 06:55:00,
2013-02-18 02:00:00,13.5,8.5,30.20,NNW,330,0.0,0.0,80,0.00,,,0.00,Wunderground v.1.12,2013-02-18 07:00:00,
2013-02-18 02:05:00,13.5,8.5,30.20,NNW,330,0.0,0.0,80,0.00,,,0.00,Wunderground v.1.12,2013-02-18 07:05:00,
2013-02-18 02:10:00,13.6,8.6,30.20,NNW,330,0.0,0.0,80,0.00,,,0.00,Wunderground v.1.12,2013-02-18 07:10:00,
2013-02-18 02:15:00,13.6,8.9,30.20,NNW,330,0.0,0.0,81,0.00,,,0.00,Wunderground v.1.12,2013-02-18 07:15:00,
2013-02-18 02:20:00,13.6,8.9,30.20,NNW,330,0.0,0.0,81,0.00,,,0.00,Wunderground v.1.12,2013-02-18 07:20:00,
2013-02-18 02:25:00,13.8,9.0,30.20,NNW,330,0.0,0.0,81,0.00,,,0.00,Wunderground v.1.12,2013-02-18 07:25:00,
2013-02-18 02:30:00,13.8,9.0,30.20,NNW,330,0.0,0.0,81,0.00,,,0.00,Wunderground v.1.12,2013-02-18 07:30:00,
2013-02-18 02:35:00,14.0,9.2,30.20,NNW,330,0.0,0.0,81,0.00,,,0.00,Wunderground v.1.12,2013-02-18 07:35:00,
2013-02-18 02:40:00,35.2,25.0,29.99,West,270,6.0,15.0,66,0.00,,,0.06,Wunderground v.1.12,2013-02-18 07:40:00,
2013-02-18 02:41:00,14.0,9.2,30.20,NNW,330,0.0,0.0,81,0.00,,,0.00,Wunderground v.1.12,2013-02-18 07:41:00,
2013-02-18 02:45:00,35.9,24.5,30.00,WNW,293,7.0,16.0,63,0.01,,,0.06,Wunderground v.1.12,2013-02-18 07:45:00,
2013-02-18 02:46:00,14.0,9.2,30.20,NNW,330,0.0,0.0,81,0.00,,,0.00,Wunderground v.1.12,2013-02-18 07:46:00,
2013-02-18 02:50:00,35.9,24.5,30.00,WNW,293,7.0,16.0,63,0.01,,,0.06,Wunderground v.1.12,2013-02-18 07:50:00,
2013-02-18 02:51:00,14.0,9.2,30.20,NNW,330,0.0,0.0,81,0.00,,,0.00,Wunderground v.1.12,2013-02-18 07:51:00,
2013-02-18 02:55:00,35.9,24.5,30.00,WNW,293,7.0,16.0,63,0.01,,,0.06,Wunderground v.1.12,2013-02-18 07:55:00,
2013-02-18 02:56:00,14.0,9.2,30.20,NNW,330,0.0,0.0,81,0.00,,,0.00,Wunderground v.1.12,2013-02-18 07:56:00,
2013-02-18 03:00:00,35.9,24.5,30.00,WNW,293,7.0,16.0,63,0.01,,,0.06,Wunderground v.1.12,2013-02-18 08:00:00,
2013-02-18 03:02:00,14.0,9.2,30.20,NNW,330,0.0,0.0,81,0.00,,,0.00,Wunderground v.1.12,2013-02-18 08:02:00,
2013-02-18 03:05:00,35.9,24.5,30.00,WNW,293,7.0,16.0,63,0.01,,,0.06,Wunderground v.1.12,2013-02-18 08:05:00,
2013-02-18 03:07:00,14.1,9.3,30.20,NNW,330,0.0,0.0,81,0.00,,,0.00,Wunderground v.1.12,2013-02-18 08:07:00,
2013-02-18 03:10:00,35.9,24.5,30.00,WNW,293,7.0,16.0,63,0.01,,,0.06,Wunderground v.1.12,2013-02-18 08:10:00,
2013-02-18 03:12:00,14.1,9.3,30.19,NNW,330,0.0,0.0,81,0.00,,,0.00,Wunderground v.1.12,2013-02-18 08:12:00,
2013-02-18 03:15:00,35.8,24.0,30.00,WNW,293,6.0,12.0,62,0.02,,,0.06,Wunderground v.1.12,2013-02-18 08:15:00,
2013-02-18 03:18:00,14.1,9.3,30.19,NNW,330,1.0,2.0,81,0.00,,,0.00,Wunderground v.1.12,2013-02-18 08:18:00,
2013-02-18 03:20:00,35.8,24.0,30.00,WNW,293,6.0,12.0,62,0.02,,,0.06,Wunderground v.1.12,2013-02-18 08:20:00,
2013-02-18 03:23:00,14.3,9.5,30.19,NNW,330,0.0,2.0,81,0.00,,,0.00,Wunderground v.1.12,2013-02-18 08:23:00,
2013-02-18 03:25:00,35.8,24.0,30.00,WNW,293,6.0,12.0,62,0.02,,,0.06,Wunderground v.1.12,2013-02-18 08:25:00,
2013-02-18 03:28:00,14.3,9.5,30.18,NNW,330,0.0,1.0,81,0.00,,,0.00,Wunderground v.1.12,2013-02-18 08:28:00,
2013-02-18 03:30:00,35.8,24.0,30.00,WNW,293,6.0,12.0,62,0.02,,,0.06,Wunderground v.1.12,2013-02-18 08:30:00,
2013-02-18 03:33:00,14.3,9.5,30.18,NNW,330,0.0,0.0,81,0.00,,,0.00,Wunderground v.1.12,2013-02-18 08:33:00,
2013-02-18 03:35:00,35.8,24.0,30.00,WNW,293,6.0,12.0,62,0.02,,,0.06,Wunderground v.1.12,2013-02-18 08:35:00,
2013-02-18 03:38:00,14.3,9.5,30.18,NNW,330,0.0,0.0,81,0.00,,,0.00,Wunderground v.1.12,2013-02-18 08:38:00,
2013-02-18 03:40:00,35.8,24.0,30.00,WNW,293,6.0,12.0,62,0.02,,,0.06,Wunderground v.1.12,2013-02-18 08:40:00,
2013-02-18 03:44:00,14.4,9.6,30.18,NNW,330,0.0,0.0,81,0.00,,,0.00,Wunderground v.1.12,2013-02-18 08:44:00,
2013-02-18 03:45:00,36.2,23.2,30.00,WNW,293,6.0,14.0,59,0.02,,,0.06,Wunderground v.1.12,2013-02-18 08:45:00,
2013-02-18 03:49:00,14.4,9.6,30.18,NNW,330,0.0,0.0,81,0.00,,,0.00,Wunderground v.1.12,2013-02-18 08:49:00,
2013-02-18 03:50:00,36.2,23.2,30.00,WNW,293,6.0,14.0,59,0.02,,,0.06,Wunderground v.1.12,2013-02-18 08:50:00,
2013-02-18 03:54:00,14.4,9.6,30.18,NNW,330,0.0,0.0,81,0.00,,,0.00,Wunderground v.1.12,2013-02-18 08:54:00,
2013-02-18 03:55:00,36.2,23.2,30.00,WNW,293,6.0,14.0,59,0.02,,,0.06,Wunderground v.1.12,2013-02-18 08:55:00,
2013-02-18 03:59:00,14.6,9.8,30.18,NNW,330,0.0,0.0,81,0.00,,,0.00,Wunderground v.1.12,2013-02-18 08:59:00,
2013-02-18 04:00:00,36.2,23.2,30.00,WNW,293,6.0,14.0,59,0.02,,,0.06,Wunderground v.1.12,2013-02-18 09:00:00,
2013-02-18 04:04:00,14.6,9.8,30.18,NNW,330,0.0,0.0,81,0.00,,,0.00,Wunderground v.1.12,2013-02-18 09:04:00,
2013-02-18 04:05:00,36.2,23.2,30.00,WNW,293,6.0,14.0,59,0.02,,,0.06,Wunderground v.1.12,2013-02-18 09:05:00,
2013-02-18 04:09:00,14.8,10.0,30.18,NNW,330,0.0,0.0,81,0.00,,,0.00,Wunderground v.1.12,2013-02-18 09:09:00,
2013-02-18 04:10:00,36.2,23.2,30.00,WNW,293,6.0,14.0,59,0.02,,,0.06,Wunderground v.1.12,2013-02-18 09:10:00,
2013-02-18 04:14:00,14.9,10.4,30.17,NNW,330,0.0,0.0,82,0.00,,,0.00,Wunderground v.1.12,2013-02-18 09:14:00,
2013-02-18 04:15:00,36.2,22.8,30.00,WNW,293,8.0,19.0,58,0.02,,,0.06,Wunderground v.1.12,2013-02-18 09:15:00,
2013-02-18 04:19:00,14.9,10.4,30.17,NNW,330,0.0,0.0,82,0.00,,,0.00,Wunderground v.1.12,2013-02-18 09:19:00,
2013-02-18 04:20:00,36.2,22.8,30.00,WNW,293,8.0,19.0,58,0.02,,,0.06,Wunderground v.1.12,2013-02-18 09:20:00,
2013-02-18 04:24:00,15.1,10.6,30.17,NNW,330,0.0,0.0,82,0.00,,,0.00,Wunderground v.1.12,2013-02-18 09:24:00,
2013-02-18 04:25:00,36.2,22.8,30.00,WNW,293,8.0,19.0,58,0.02,,,0.06,Wunderground v.1.12,2013-02-18 09:25:00,
2013-02-18 04:29:00,15.2,10.7,30.16,NNW,330,1.0,1.0,82,0.00,,,0.00,Wunderground v.1.12,2013-02-18 09:29:00,
2013-02-18 04:30:00,36.2,22.8,30.00,WNW,293,8.0,19.0,58,0.02,,,0.06,Wunderground v.1.12,2013-02-18 09:30:00,
2013-02-18 04:34:00,15.4,10.9,30.16,NNW,330,0.0,1.0,82,0.00,,,0.00,Wunderground v.1.12,2013-02-18 09:34:00,
2013-02-18 04:35:00,36.2,22.8,30.00,WNW,293,8.0,19.0,58,0.02,,,0.06,Wunderground v.1.12,2013-02-18 09:35:00,
2013-02-18 04:39:00,15.6,11.1,30.16,NNW,330,0.0,1.0,82,0.00,,,0.00,Wunderground v.1.12,2013-02-18 09:39:00,
2013-02-18 04:40:00,36.2,22.8,30.00,WNW,293,8.0,19.0,58,0.02,,,0.06,Wunderground v.1.12,2013-02-18 09:40:00,
2013-02-18 04:44:00,15.7,11.2,30.16,NNW,330,0.0,2.0,82,0.00,,,0.00,Wunderground v.1.12,2013-02-18 09:44:00,
2013-02-18 04:45:00,36.0,23.0,30.01,WNW,293,6.0,15.0,59,0.01,,,0.06,Wunderground v.1.12,2013-02-18 09:45:00,
2013-02-18 04:49:00,16.1,11.6,30.16,NNW,330,1.0,2.0,82,0.00,,,0.00,Wunderground v.1.12,2013-02-18 09:49:00,
2013-02-18 04:50:00,36.0,23.0,30.01,WNW,293,6.0,15.0,59,0.01,,,0.06,Wunderground v.1.12,2013-02-18 09:50:00,
2013-02-18 04:55:00,16.5,12.0,30.16,NNW,330,1.0,1.0,82,0.00,,,0.00,Wunderground v.1.12,2013-02-18 09:55:00,
2013-02-18 05:00:00,16.9,12.4,30.16,NNW,330,1.0,1.0,82,0.00,,,0.00,Wunderground v.1.12,2013-02-18 10:00:00,
2013-02-18 05:05:00,17.2,12.6,30.16,NNW,330,1.0,1.0,82,0.00,,,0.00,Wunderground v.1.12,2013-02-18 10:05:00,
2013-02-18 05:10:00,17.7,13.1,30.16,NNW,330,1.0,2.0,82,0.00,,,0.00,Wunderground v.1.12,2013-02-18 10:10:00,
2013-02-18 05:15:00,35.5,23.4,30.01,NW,315,5.0,12.0,61,0.00,,,0.06,Wunderground v.1.12,2013-02-18 10:15:00,
2013-02-18 05:16:00,18.0,13.2,30.16,NNW,332,2.0,3.0,81,0.00,,,0.00,Wunderground v.1.12,2013-02-18 10:16:00,
2013-02-18 05:20:00,35.5,23.4,30.01,NW,315,5.0,12.0,61,0.00,,,0.06,Wunderground v.1.12,2013-02-18 10:20:00,
2013-02-18 05:21:00,18.3,13.4,30.16,NNW,332,3.0,4.0,81,0.00,,,0.00,Wunderground v.1.12,2013-02-18 10:21:00,
2013-02-18 05:25:00,35.5,23.4,30.01,NW,315,5.0,12.0,61,0.00,,,0.06,Wunderground v.1.12,2013-02-18 10:25:00,
2013-02-18 05:26:00,18.4,13.3,30.15,NNW,333,0.0,3.0,80,0.00,,,0.00,Wunderground v.1.12,2013-02-18 10:26:00,
2013-02-18 05:30:00,35.5,23.4,30.01,NW,315,5.0,12.0,61,0.00,,,0.06,Wunderground v.1.12,2013-02-18 10:30:00,
2013-02-18 05:31:00,18.8,13.4,30.15,NNW,333,1.0,2.0,79,0.00,,,0.00,Wunderground v.1.12,2013-02-18 10:31:00,
2013-02-18 05:35:00,35.5,23.4,30.01,NW,315,5.0,12.0,61,0.00,,,0.06,Wunderground v.1.12,2013-02-18 10:35:00,
2013-02-18 05:36:00,18.9,13.2,30.15,NNW,336,1.0,4.0,78,0.00,,,0.00,Wunderground v.1.12,2013-02-18 10:36:00,
2013-02-18 05:40:00,35.5,23.4,30.01,NW,315,5.0,12.0,61,0.00,,,0.06,Wunderground v.1.12,2013-02-18 10:40:00,
2013-02-18 05:41:00,19.1,13.1,30.15,NNW,336,1.0,2.0,77,0.00,,,0.00,Wunderground v.1.12,2013-02-18 10:41:00,
2013-02-18 05:45:00,35.5,23.4,30.02,WNW,293,5.0,11.0,61,0.00,,,0.06,Wunderground v.1.12,2013-02-18 10:45:00,
2013-02-18 05:46:00,19.1,13.1,30.15,NNW,340,0.0,3.0,77,0.00,,,0.00,Wunderground v.1.12,2013-02-18 10:46:00,
2013-02-18 05:50:00,35.5,23.4,30.02,WNW,293,5.0,11.0,61,0.00,,,0.06,Wunderground v.1.12,2013-02-18 10:50:00,
2013-02-18 05:51:00,19.2,12.9,30.15,NNW,340,1.0,2.0,76,0.00,,,0.00,Wunderground v.1.12,2013-02-18 10:51:00,
2013-02-18 05:55:00,35.5,23.4,30.02,WNW,293,5.0,11.0,61,0.00,,,0.06,Wunderground v.1.12,2013-02-18 10:55:00,
2013-02-18 05:57:00,19.4,12.8,30.14,SE,129,0.0,4.0,75,0.00,,,0.00,Wunderground v.1.12,2013-02-18 10:57:00,
2013-02-18 06:00:00,35.5,23.4,30.02,WNW,293,5.0,11.0,61,0.00,,,0.06,Wunderground v.1.12,2013-02-18 11:00:00,
2013-02-18 06:02:00,19.4,12.8,30.14,SE,129,2.0,4.0,75,0.00,,,0.00,Wunderground v.1.12,2013-02-18 11:02:00,
2013-02-18 06:05:00,35.5,23.4,30.02,WNW,293,5.0,11.0,61,0.00,,,0.06,Wunderground v.1.12,2013-02-18 11:05:00,
2013-02-18 06:07:00,19.5,12.9,30.14,SE,129,2.0,6.0,75,0.00,,,0.00,Wunderground v.1.12,2013-02-18 11:07:00,
2013-02-18 06:10:00,35.5,23.4,30.02,WNW,293,5.0,11.0,61,0.00,,,0.06,Wunderground v.1.12,2013-02-18 11:10:00,
2013-02-18 06:12:00,19.7,13.1,30.13,SE,131,4.0,5.0,75,0.00,,,0.00,Wunderground v.1.12,2013-02-18 11:12:00,
2013-02-18 06:15:00,35.6,23.1,30.03,WNW,293,3.0,10.0,60,0.01,,,0.06,Wunderground v.1.12,2013-02-18 11:15:00,
2013-02-18 06:17:00,20.0,13.3,30.13,SE,142,3.0,6.0,75,0.00,,,0.00,Wunderground v.1.12,2013-02-18 11:17:00,
2013-02-18 06:20:00,35.6,23.1,30.03,WNW,293,3.0,10.0,60,0.01,,,0.06,Wunderground v.1.12,2013-02-18 11:20:00,
2013-02-18 06:22:00,20.3,13.3,30.13,SE,142,1.0,6.0,74,0.00,,,0.00,Wunderground v.1.12,2013-02-18 11:22:00,
2013-02-18 06:25:00,35.6,23.1,30.03,WNW,293,3.0,10.0,60,0.01,,,0.06,Wunderground v.1.12,2013-02-18 11:25:00,
2013-02-18 06:27:00,20.5,13.5,30.13,SE,144,3.0,7.0,74,0.00,,,0.00,Wunderground v.1.12,2013-02-18 11:27:00,
2013-02-18 06:30:00,35.6,23.1,30.03,WNW,293,3.0,10.0,60,0.01,,,0.06,Wunderground v.1.12,2013-02-18 11:30:00,
2013-02-18 06:32:00,20.6,13.6,30.13,SE,142,0.0,6.0,74,0.00,,,0.00,Wunderground v.1.12,2013-02-18 11:32:00,
2013-02-18 06:35:00,35.6,23.1,30.03,WNW,293,3.0,10.0,60,0.01,,,0.06,Wunderground v.1.12,2013-02-18 11:35:00,
2013-02-18 06:37:00,20.8,13.5,30.13,SE,142,5.0,5.0,73,0.00,,,0.00,Wunderground v.1.12,2013-02-18 11:37:00,
2013-02-18 06:40:00,35.6,23.1,30.03,WNW,293,3.0,10.0,60,0.01,,,0.06,Wunderground v.1.12,2013-02-18 11:40:00,
2013-02-18 06:43:00,21.0,13.4,30.13,SE,144,2.0,5.0,72,0.00,,,0.00,Wunderground v.1.12,2013-02-18 11:43:00,
2013-02-18 06:45:00,36.9,23.5,30.04,WNW,293,6.0,13.0,58,0.01,,,0.06,Wunderground v.1.12,2013-02-18 11:45:00,
2013-02-18 06:48:00,21.1,13.5,30.13,SE,145,0.0,5.0,72,0.00,,,0.00,Wunderground v.1.12,2013-02-18 11:48:00,
2013-02-18 06:50:00,36.9,23.5,30.04,WNW,293,6.0,13.0,58,0.01,,,0.06,Wunderground v.1.12,2013-02-18 11:50:00,
2013-02-18 06:53:00,21.1,13.5,30.13,SE,142,3.0,6.0,72,0.00,,,0.00,Wunderground v.1.12,2013-02-18 11:53:00,
2013-02-18 06:55:00,36.9,23.5,30.04,WNW,293,6.0,13.0,58,0.01,,,0.06,Wunderground v.1.12,2013-02-18 11:55:00,
2013-02-18 06:58:00,21.1,13.5,30.12,SSE,154,2.0,7.0,72,0.00,,,0.00,Wunderground v.1.12,2013-02-18 11:58:00,
2013-02-18 07:00:00,36.9,23.5,30.04,WNW,293,6.0,13.0,58,0.01,,,0.06,Wunderground v.1.12,2013-02-18 12:00:00,
2013-02-18 07:03:00,21.3,13.7,30.12,SSE,161,5.0,6.0,72,0.00,,,0.00,Wunderground v.1.12,2013-02-18 12:03:00,
2013-02-18 07:05:00,36.9,23.5,30.04,WNW,293,6.0,13.0,58,0.01,,,0.06,Wunderground v.1.12,2013-02-18 12:05:00,
2013-02-18 07:08:00,21.4,13.5,30.12,SSE,160,6.0,10.0,71,0.00,,,0.00,Wunderground v.1.12,2013-02-18 12:08:00,
2013-02-18 07:10:00,36.9,23.5,30.04,WNW,293,6.0,13.0,58,0.01,,,0.06,Wunderground v.1.12,2013-02-18 12:10:00,
2013-02-18 07:13:00,21.6,13.6,30.11,SSE,160,7.0,7.0,71,0.00,,,0.00,Wunderground v.1.12,2013-02-18 12:13:00,
2013-02-18 07:15:00,35.8,22.9,30.05,NW,315,6.0,15.0,59,0.00,,,0.06,Wunderground v.1.12,2013-02-18 12:15:00,
2013-02-18 07:18:00,21.6,13.3,30.11,SSE,161,4.0,6.0,70,0.00,,,0.00,Wunderground v.1.12,2013-02-18 12:18:00,
2013-02-18 07:20:00,35.8,22.9,30.05,NW,315,6.0,15.0,59,0.00,,,0.06,Wunderground v.1.12,2013-02-18 12:20:00,
2013-02-18 07:24:00,21.8,13.5,30.11,SSE,154,4.0,11.0,70,0.00,,,0.00,Wunderground v.1.12,2013-02-18 12:24:00,
2013-02-18 07:25:00,35.8,22.9,30.05,NW,315,6.0,15.0,59,0.00,,,0.06,Wunderground v.1.12,2013-02-18 12:25:00,
2013-02-18 07:29:00,21.9,13.3,30.10,SSE,162,6.0,11.0,69,0.00,,,0.00,Wunderground v.1.12,2013-02-18 12:29:00,
2013-02-18 07:30:00,35.8,22.9,30.05,NW,315,6.0,15.0,59,0.00,,,0.06,Wunderground v.1.12,2013-02-18 12:30:00,
2013-02-18 07:34:00,22.1,13.8,30.10,SSE,158,1.0,7.0,70,0.00,,,0.00,Wunderground v.1.12,2013-02-18 12:34:00,
2013-02-18 07:35:00,35.8,22.9,30.05,NW,315,6.0,15.0,59,0.00,,,0.06,Wunderground v.1.12,2013-02-18 12:35:00,
2013-02-18 07:39:00,22.2,13.6,30.10,SSE,157,3.0,6.0,69,0.00,,,0.00,Wunderground v.1.12,2013-02-18 12:39:00,
2013-02-18 07:40:00,35.8,22.9,30.05,NW,315,6.0,15.0,59,0.00,,,0.06,Wunderground v.1.12,2013-02-18 12:40:00,
2013-02-18 07:44:00,22.2,13.9,30.10,SSE,156,3.0,6.0,70,0.00,,,0.00,Wunderground v.1.12,2013-02-18 12:44:00,
2013-02-18 07:45:00,35.6,23.5,30.06,WNW,293,6.0,14.0,61,0.00,,,0.06,Wunderground v.1.12,2013-02-18 12:45:00,
2013-02-18 07:49:00,22.4,14.1,30.10,SE,146,3.0,12.0,70,0.00,,,0.00,Wunderground v.1.12,2013-02-18 12:49:00,
2013-02-18 07:50:00,35.6,23.5,30.06,WNW,293,6.0,14.0,61,0.00,,,0.06,Wunderground v.1.12,2013-02-18 12:50:00,
2013-02-18 07:54:00,22.4,14.1,30.10,SSE,150,5.0,13.0,70,0.00,,,0.00,Wunderground v.1.12,2013-02-18 12:54:00,
2013-02-18 07:55:00,35.6,23.5,30.06,WNW,293,6.0,14.0,61,0.00,,,0.06,Wunderground v.1.12,2013-02-18 12:55:00,
2013-02-18 07:59:00,22.4,14.1,30.09,SSE,165,8.0,11.0,70,0.00,,,0.00,Wunderground v.1.12,2013-02-18 12:59:00,
2013-02-18 08:00:00,35.6,23.5,30.06,WNW,293,6.0,14.0,61,0.00,,,0.06,Wunderground v.1.12,2013-02-18 13:00:00,
2013-02-18 08:04:00,22.2,13.6,30.09,SSE,167,4.0,7.0,69,0.00,,,0.00,Wunderground v.1.12,2013-02-18 13:04:00,
2013-02-18 08:05:00,35.6,23.5,30.06,WNW,293,6.0,14.0,61,0.00,,,0.06,Wunderground v.1.12,2013-02-18 13:05:00,
2013-02-18 08:09:00,22.2,13.6,30.09,SSE,160,5.0,12.0,69,0.00,,,0.00,Wunderground v.1.12,2013-02-18 13:09:00,
2013-02-18 08:10:00,35.6,23.5,30.06,WNW,293,6.0,14.0,61,0.00,,,0.06,Wunderground v.1.12,2013-02-18 13:10:00,
2013-02-18 08:14:00,22.4,13.8,30.09,SSE,157,5.0,5.0,69,0.00,,,0.00,Wunderground v.1.12,2013-02-18 13:14:00,
2013-02-18 08:15:00,35.0,23.7,30.07,WNW,293,3.0,8.0,63,0.00,,,0.06,Wunderground v.1.12,2013-02-18 13:15:00,
2013-02-18 08:19:00,22.5,13.9,30.09,South,180,4.0,8.0,69,0.00,,,0.00,Wunderground v.1.12,2013-02-18 13:19:00,
2013-02-18 08:24:00,22.7,14.1,30.09,SSE,160,4.0,11.0,69,0.00,,,0.00,Wunderground v.1.12,2013-02-18 13:24:00,
2013-02-18 08:25:00,35.0,23.7,30.07,WNW,293,3.0,8.0,63,0.00,,,0.06,Wunderground v.1.12,2013-02-18 13:25:00,
2013-02-18 08:29:00,23.0,14.3,30.08,SSE,154,7.0,11.0,69,0.00,,,0.00,Wunderground v.1.12,2013-02-18 13:29:00,
2013-02-18 08:30:00,35.0,23.7,30.07,WNW,293,3.0,8.0,63,0.00,,,0.06,Wunderground v.1.12,2013-02-18 13:30:00,
2013-02-18 08:34:00,23.2,14.2,30.08,SE,135,7.0,10.0,68,0.00,,,0.00,Wunderground v.1.12,2013-02-18 13:34:00,
2013-02-18 08:35:00,35.0,23.7,30.07,WNW,293,3.0,8.0,63,0.00,,,0.06,Wunderground v.1.12,2013-02-18 13:35:00,
2013-02-18 08:39:00,23.2,14.2,30.08,SSE,164,6.0,13.0,68,0.00,,,0.00,Wunderground v.1.12,2013-02-18 13:39:00,
2013-02-18 08:40:00,35.0,23.7,30.07,WNW,293,3.0,8.0,63,0.00,,,0.06,Wunderground v.1.12,2013-02-18 13:40:00,
2013-02-18 08:44:00,23.5,14.1,30.08,SSE,149,8.0,13.0,67,0.00,,,0.00,Wunderground v.1.12,2013-02-18 13:44:00,
2013-02-18 08:45:00,34.6,23.7,30.08,WNW,293,3.0,9.0,64,0.00,,,0.06,Wunderground v.1.12,2013-02-18 13:45:00,
2013-02-18 08:49:00,23.8,14.4,30.08,SE,144,3.0,15.0,67,0.00,,,0.00,Wunderground v.1.12,2013-02-18 13:49:00,
2013-02-18 08:50:00,34.6,23.7,30.08,WNW,293,3.0,9.0,64,0.00,,,0.06,Wunderground v.1.12,2013-02-18 13:50:00,
2013-02-18 08:54:00,24.2,14.5,30.08,SSE,158,12.0,12.0,66,0.00,,,0.00,Wunderground v.1.12,2013-02-18 13:54:00,
2013-02-18 08:55:00,34.6,23.7,30.08,WNW,293,3.0,9.0,64,0.00,,,0.06,Wunderground v.1.12,2013-02-18 13:55:00,
2013-02-18 08:59:00,24.5,14.1,30.07,South,183,9.0,13.0,64,0.00,,,0.00,Wunderground v.1.12,2013-02-18 13:59:00,
2013-02-18 09:00:00,34.6,23.7,30.08,WNW,293,3.0,9.0,64,0.00,,,0.06,Wunderground v.1.12,2013-02-18 14:00:00,
2013-02-18 09:04:00,25.0,14.5,30.07,SSE,164,8.0,14.0,64,0.00,,,0.00,Wunderground v.1.12,2013-02-18 14:04:00,
2013-02-18 09:05:00,34.6,23.7,30.08,WNW,293,3.0,9.0,64,0.00,,,0.06,Wunderground v.1.12,2013-02-18 14:05:00,
2013-02-18 09:09:00,25.4,14.5,30.07,SE,144,10.0,10.0,63,0.00,,,0.00,Wunderground v.1.12,2013-02-18 14:09:00,
2013-02-18 09:10:00,34.6,23.7,30.08,WNW,293,3.0,9.0,64,0.00,,,0.06,Wunderground v.1.12,2013-02-18 14:10:00,
2013-02-18 09:14:00,25.6,14.4,30.07,South,173,10.0,14.0,62,0.00,,,0.00,Wunderground v.1.12,2013-02-18 14:14:00,
2013-02-18 09:15:00,34.1,23.9,30.09,WNW,293,2.0,5.0,66,0.00,,,0.06,Wunderground v.1.12,2013-02-18 14:15:00,
2013-02-18 09:19:00,25.7,14.1,30.07,SSE,158,7.0,14.0,61,0.00,,,0.00,Wunderground v.1.12,2013-02-18 14:19:00,
2013-02-18 09:24:00,25.8,14.2,30.07,SSE,150,4.0,11.0,61,0.00,,,0.00,Wunderground v.1.12,2013-02-18 14:24:00,
2013-02-18 09:25:00,34.1,23.9,30.09,WNW,293,2.0,5.0,66,0.00,,,0.06,Wunderground v.1.12,2013-02-18 14:25:00,
2013-02-18 09:29:00,26.1,14.5,30.05,SE,145,3.0,13.0,61,0.00,,,0.00,Wunderground v.1.12,2013-02-18 14:29:00,
2013-02-18 09:30:00,34.1,23.9,30.09,WNW,293,2.0,5.0,66,0.00,,,0.06,Wunderground v.1.12,2013-02-18 14:30:00,
2013-02-18 09:34:00,26.4,14.8,30.05,South,187,6.0,17.0,61,0.00,,,0.00,Wunderground v.1.12,2013-02-18 14:34:00,
2013-02-18 09:35:00,34.1,23.9,30.09,WNW,293,2.0,5.0,66,0.00,,,0.06,Wunderground v.1.12,2013-02-18 14:35:00,
2013-02-18 09:39:00,26.6,14.6,30.05,SSE,148,12.0,17.0,60,0.00,,,0.00,Wunderground v.1.12,2013-02-18 14:39:00,
2013-02-18 09:40:00,34.1,23.9,30.09,WNW,293,2.0,5.0,66,0.00,,,0.06,Wunderground v.1.12,2013-02-18 14:40:00,
2013-02-18 09:44:00,26.9,14.9,30.04,SE,135,6.0,11.0,60,0.00,,,0.00,Wunderground v.1.12,2013-02-18 14:44:00,
2013-02-18 09:45:00,33.5,23.4,30.10,WNW,293,1.0,3.0,66,0.01,,,0.06,Wunderground v.1.12,2013-02-18 14:45:00,
2013-02-18 09:49:00,27.2,15.1,30.04,SSE,150,7.0,14.0,60,0.00,,,0.00,Wunderground v.1.12,2013-02-18 14:49:00,
2013-02-18 09:50:00,33.5,23.4,30.10,WNW,293,1.0,3.0,66,0.01,,,0.06,Wunderground v.1.12,2013-02-18 14:50:00,
2013-02-18 09:55:00,27.5,15.0,30.04,SSE,166,3.0,7.0,59,0.00,,,0.00,Wunderground v.1.12,2013-02-18 14:55:00,
2013-02-18 10:00:00,27.9,15.8,30.03,ESE,121,10.0,10.0,60,0.00,,,0.00,Wunderground v.1.12,2013-02-18 15:00:00,
2013-02-18 10:05:00,28.4,15.9,30.03,SSE,154,6.0,16.0,59,0.00,,,0.00,Wunderground v.1.12,2013-02-18 15:05:00,
2013-02-18 10:10:00,28.7,16.2,30.03,South,183,5.0,11.0,59,0.00,,,0.00,Wunderground v.1.12,2013-02-18 15:10:00,
2013-02-18 10:15:00,29.1,16.1,30.02,SSE,158,4.0,10.0,58,0.00,,,0.00,Wunderground v.1.12,2013-02-18 15:15:00,
2013-02-18 10:20:00,29.3,16.3,30.02,SE,134,7.0,10.0,58,0.00,,,0.00,Wunderground v.1.12,2013-02-18 15:20:00,
2013-02-18 10:25:00,29.7,16.3,30.02,SSE,158,6.0,10.0,57,0.00,,,0.00,Wunderground v.1.12,2013-02-18 15:25:00,
2013-02-18 10:30:00,29.7,16.3,30.02,SSE,152,4.0,12.0,57,0.00,,,0.00,Wunderground v.1.12,2013-02-18 15:30:00,
2013-02-18 10:35:00,30.0,17.0,30.02,SSE,164,6.0,15.0,58,0.00,,,0.00,Wunderground v.1.12,2013-02-18 15:35:00,
2013-02-18 10:40:00,30.0,16.2,30.02,SE,146,7.0,11.0,56,0.00,,,0.00,Wunderground v.1.12,2013-02-18 15:40:00,
2013-02-18 10:45:00,30.1,16.3,30.01,SE,142,5.0,9.0,56,0.00,,,0.00,Wunderground v.1.12,2013-02-18 15:45:00,
2013-02-18 10:50:00,30.6,17.2,30.01,SSE,164,13.0,14.0,57,0.00,,,0.00,Wunderground v.1.12,2013-02-18 15:50:00,
2013-02-18 10:55:00,30.6,16.7,30.01,SSE,160,6.0,13.0,56,0.00,,,0.00,Wunderground v.1.12,2013-02-18 15:55:00,
2013-02-18 11:00:00,30.4,17.0,30.00,SE,142,7.0,9.0,57,0.00,,,0.00,Wunderground v.1.12,2013-02-18 16:00:00,
2013-02-18 11:05:00,30.6,17.2,30.00,SE,140,7.0,12.0,57,0.00,,,0.00,Wunderground v.1.12,2013-02-18 16:05:00,
2013-02-18 11:10:00,30.7,17.3,30.00,SE,141,4.0,10.0,57,0.00,,,0.00,Wunderground v.1.12,2013-02-18 16:10:00,
2013-02-18 11:15:00,30.7,17.3,30.00,SE,137,13.0,15.0,57,0.00,,,0.00,Wunderground v.1.12,2013-02-18 16:15:00,
2013-02-18 11:20:00,28.5,20.9,30.11,N/A,-737280,0.0,0.0,73,0.00,,,0.06,Wunderground v.1.12,2013-02-18 16:20:00,
2013-02-18 11:21:00,30.7,16.8,30.00,South,171,7.0,13.0,56,0.00,,,0.00,Wunderground v.1.12,2013-02-18 16:21:00,
2013-02-18 11:25:00,28.5,20.9,30.11,N/A,-737280,0.0,0.0,73,0.00,,,0.06,Wunderground v.1.12,2013-02-18 16:25:00,
2013-02-18 11:26:00,30.9,17.4,30.00,SSE,166,12.0,18.0,57,0.00,,,0.00,Wunderground v.1.12,2013-02-18 16:26:00,
2013-02-18 11:30:00,28.5,20.9,30.11,N/A,-737280,0.0,0.0,73,0.00,,,0.06,Wunderground v.1.12,2013-02-18 16:30:00,
2013-02-18 11:31:00,31.3,18.2,29.99,SE,143,8.0,14.0,58,0.00,,,0.00,Wunderground v.1.12,2013-02-18 16:31:00,
2013-02-18 11:35:00,28.5,20.9,30.11,N/A,-737280,0.0,0.0,73,0.00,,,0.06,Wunderground v.1.12,2013-02-18 16:35:00,
2013-02-18 11:36:00,31.9,18.0,29.99,South,172,12.0,18.0,56,0.00,,,0.00,Wunderground v.1.12,2013-02-18 16:36:00,
2013-02-18 11:40:00,28.5,20.9,30.11,N/A,-737280,0.0,0.0,73,0.00,,,0.06,Wunderground v.1.12,2013-02-18 16:40:00,
2013-02-18 11:41:00,32.1,17.7,29.99,SE,135,7.0,11.0,55,0.00,,,0.00,Wunderground v.1.12,2013-02-18 16:41:00,
2013-02-18 11:45:00,26.9,20.3,30.11,N/A,-737280,0.0,0.0,76,0.00,,,0.06,Wunderground v.1.12,2013-02-18 16:45:00,
2013-02-18 11:46:00,32.2,17.8,29.98,South,169,3.0,8.0,55,0.00,,,0.00,Wunderground v.1.12,2013-02-18 16:46:00,
2013-02-18 11:50:00,26.9,20.3,30.11,N/A,-737280,0.0,0.0,76,0.00,,,0.06,Wunderground v.1.12,2013-02-18 16:50:00,
2013-02-18 11:51:00,32.5,18.1,29.98,SSE,155,3.0,8.0,55,0.00,,,0.00,Wunderground v.1.12,2013-02-18 16:51:00,
2013-02-18 11:55:00,26.9,20.3,30.11,N/A,-737280,0.0,0.0,76,0.00,,,0.06,Wunderground v.1.12,2013-02-18 16:55:00,
2013-02-18 11:56:00,32.5,18.1,29.98,SSE,148,7.0,13.0,55,0.00,,,0.00,Wunderground v.1.12,2013-02-18 16:56:00,
2013-02-18 12:00:00,26.9,20.3,30.11,N/A,-737280,0.0,0.0,76,0.00,,,0.06,Wunderground v.1.12,2013-02-18 17:00:00,
2013-02-18 12:01:00,32.5,18.1,29.97,SSE,161,12.0,13.0,55,0.00,,,0.00,Wunderground v.1.12,2013-02-18 17:01:00,
2013-02-18 12:05:00,26.9,20.3,30.11,N/A,-737280,0.0,0.0,76,0.00,,,0.06,Wunderground v.1.12,2013-02-18 17:05:00,
2013-02-18 12:06:00,32.8,18.8,29.97,SE,131,8.0,15.0,56,0.00,,,0.00,Wunderground v.1.12,2013-02-18 17:06:00,
2013-02-18 12:10:00,26.9,20.3,30.11,N/A,-737280,0.0,0.0,76,0.00,,,0.06,Wunderground v.1.12,2013-02-18 17:10:00,
2013-02-18 12:11:00,33.2,19.2,29.96,ESE,120,8.0,15.0,56,0.00,,,0.00,Wunderground v.1.12,2013-02-18 17:11:00,
2013-02-18 12:15:00,25.7,20.1,30.12,WNW,293,0.0,2.0,79,0.00,,,0.06,Wunderground v.1.12,2013-02-18 17:15:00,
2013-02-18 12:17:00,33.5,18.6,29.96,SE,126,9.0,11.0,54,0.00,,,0.00,Wunderground v.1.12,2013-02-18 17:17:00,
2013-02-18 12:20:00,25.7,20.1,30.12,WNW,293,0.0,2.0,79,0.00,,,0.06,Wunderground v.1.12,2013-02-18 17:20:00,
2013-02-18 12:22:00,34.0,19.5,29.96,SSE,166,11.0,18.0,55,0.00,,,0.00,Wunderground v.1.12,2013-02-18 17:22:00,
2013-02-18 12:25:00,25.7,20.1,30.12,WNW,293,0.0,2.0,79,0.00,,,0.06,Wunderground v.1.12,2013-02-18 17:25:00,
2013-02-18 12:27:00,33.8,18.9,29.95,South,175,6.0,12.0,54,0.00,,,0.00,Wunderground v.1.12,2013-02-18 17:27:00,
2013-02-18 12:30:00,25.7,20.1,30.12,WNW,293,0.0,2.0,79,0.00,,,0.06,Wunderground v.1.12,2013-02-18 17:30:00,
2013-02-18 12:32:00,33.7,18.8,29.95,SSE,150,10.0,11.0,54,0.00,,,0.00,Wunderground v.1.12,2013-02-18 17:32:00,
2013-02-18 12:35:00,25.7,20.1,30.12,WNW,293,0.0,2.0,79,0.00,,,0.06,Wunderground v.1.12,2013-02-18 17:35:00,
2013-02-18 12:37:00,33.7,19.2,29.95,South,171,5.0,15.0,55,0.00,,,0.00,Wunderground v.1.12,2013-02-18 17:37:00,
2013-02-18 12:40:00,25.7,20.1,30.12,WNW,293,0.0,2.0,79,0.00,,,0.06,Wunderground v.1.12,2013-02-18 17:40:00,
2013-02-18 12:42:00,33.8,19.3,29.94,SE,134,6.0,13.0,55,0.00,,,0.00,Wunderground v.1.12,2013-02-18 17:42:00,
2013-02-18 12:45:00,24.7,19.7,30.13,WNW,293,1.0,2.0,81,0.00,,,0.06,Wunderground v.1.12,2013-02-18 17:45:00,
2013-02-18 12:47:00,34.3,20.2,29.94,SSE,164,3.0,12.0,56,0.00,,,0.00,Wunderground v.1.12,2013-02-18 17:47:00,
2013-02-18 12:50:00,24.7,19.7,30.13,WNW,293,1.0,2.0,81,0.00,,,0.06,Wunderground v.1.12,2013-02-18 17:50:00,
2013-02-18 12:52:00,34.7,20.6,29.94,South,191,2.0,14.0,56,0.00,,,0.00,Wunderground v.1.12,2013-02-18 17:52:00,
2013-02-18 12:55:00,24.7,19.7,30.13,WNW,293,1.0,2.0,81,0.00,,,0.06,Wunderground v.1.12,2013-02-18 17:55:00,
2013-02-18 12:57:00,35.0,20.0,29.93,SSE,162,2.0,7.0,54,0.00,,,0.00,Wunderground v.1.12,2013-02-18 17:57:00,
2013-02-18 13:00:00,24.7,19.7,30.13,WNW,293,1.0,2.0,81,0.00,,,0.06,Wunderground v.1.12,2013-02-18 18:00:00,
2013-02-18 13:03:00,35.5,20.0,29.93,SSE,160,3.0,12.0,53,0.00,,,0.00,Wunderground v.1.12,2013-02-18 18:03:00,
2013-02-18 13:05:00,24.7,19.7,30.13,WNW,293,1.0,2.0,81,0.00,,,0.06,Wunderground v.1.12,2013-02-18 18:05:00,
2013-02-18 13:08:00,35.8,20.3,29.93,SSE,160,7.0,15.0,53,0.00,,,0.00,Wunderground v.1.12,2013-02-18 18:08:00,
2013-02-18 13:10:00,24.7,19.7,30.13,WNW,293,1.0,2.0,81,0.00,,,0.06,Wunderground v.1.12,2013-02-18 18:10:00,
2013-02-18 13:13:00,36.2,21.1,29.91,SSE,164,5.0,12.0,54,0.00,,,0.00,Wunderground v.1.12,2013-02-18 18:13:00,
2013-02-18 13:15:00,24.1,19.7,30.13,WNW,293,1.0,2.0,83,0.00,,,0.06,Wunderground v.1.12,2013-02-18 18:15:00,
2013-02-18 13:18:00,36.5,21.0,29.91,South,185,8.0,15.0,53,0.00,,,0.00,Wunderground v.1.12,2013-02-18 18:18:00,
2013-02-18 13:20:00,24.1,19.7,30.13,WNW,293,1.0,2.0,83,0.00,,,0.06,Wunderground v.1.12,2013-02-18 18:20:00,
2013-02-18 13:23:00,36.9,21.8,29.91,SE,140,6.0,11.0,54,0.00,,,0.00,Wunderground v.1.12,2013-02-18 18:23:00,
2013-02-18 13:25:00,24.1,19.7,30.13,WNW,293,1.0,2.0,83,0.00,,,0.06,Wunderground v.1.12,2013-02-18 18:25:00,
2013-02-18 13:29:00,37.2,21.6,29.90,SSE,154,7.0,7.0,53,0.00,,,0.00,Wunderground v.1.12,2013-02-18 18:29:00,
2013-02-18 13:30:00,24.1,19.7,30.13,WNW,293,1.0,2.0,83,0.00,,,0.06,Wunderground v.1.12,2013-02-18 18:30:00,
2013-02-18 13:34:00,37.8,22.6,29.90,SSE,158,5.0,10.0,54,0.00,,,0.00,Wunderground v.1.12,2013-02-18 18:34:00,
2013-02-18 13:35:00,24.1,19.7,30.13,WNW,293,1.0,2.0,83,0.00,,,0.06,Wunderground v.1.12,2013-02-18 18:35:00,
2013-02-18 13:39:00,38.5,21.9,29.90,South,170,7.0,13.0,51,0.00,,,0.00,Wunderground v.1.12,2013-02-18 18:39:00,
2013-02-18 13:40:00,24.1,19.7,30.13,WNW,293,1.0,2.0,83,0.00,,,0.06,Wunderground v.1.12,2013-02-18 18:40:00,
2013-02-18 13:44:00,38.6,21.5,29.89,SE,136,6.0,13.0,50,0.00,,,0.00,Wunderground v.1.12,2013-02-18 18:44:00,
2013-02-18 13:45:00,23.6,19.5,30.12,WNW,293,0.0,2.0,84,0.00,,,0.06,Wunderground v.1.12,2013-02-18 18:45:00,
2013-02-18 13:49:00,38.9,22.3,29.89,ESE,122,10.0,12.0,51,0.00,,,0.00,Wunderground v.1.12,2013-02-18 18:49:00,
2013-02-18 13:50:00,23.6,19.5,30.12,WNW,293,0.0,2.0,84,0.00,,,0.06,Wunderground v.1.12,2013-02-18 18:50:00,
2013-02-18 13:54:00,39.3,22.7,29.89,SSE,153,8.0,12.0,51,0.00,,,0.00,Wunderground v.1.12,2013-02-18 18:54:00,
2013-02-18 13:55:00,23.6,19.5,30.12,WNW,293,0.0,2.0,84,0.00,,,0.06,Wunderground v.1.12,2013-02-18 18:55:00,
2013-02-18 13:59:00,39.6,22.9,29.88,SSE,153,8.0,14.0,51,0.00,,,0.00,Wunderground v.1.12,2013-02-18 18:59:00,
2013-02-18 14:00:00,23.6,19.5,30.12,WNW,293,0.0,2.0,84,0.00,,,0.06,Wunderground v.1.12,2013-02-18 19:00:00,
2013-02-18 14:04:00,39.6,22.9,29.88,SSE,157,4.0,11.0,51,0.00,,,0.00,Wunderground v.1.12,2013-02-18 19:04:00,
2013-02-18 14:05:00,23.6,19.5,30.12,WNW,293,0.0,2.0,84,0.00,,,0.06,Wunderground v.1.12,2013-02-18 19:05:00,
2013-02-18 14:09:00,39.9,22.7,29.88,SE,146,8.0,12.0,50,0.00,,,0.00,Wunderground v.1.12,2013-02-18 19:09:00,
2013-02-18 14:10:00,23.6,19.5,30.12,WNW,293,0.0,2.0,84,0.00,,,0.06,Wunderground v.1.12,2013-02-18 19:10:00,
2013-02-18 14:14:00,40.3,23.1,29.88,SSW,212,5.0,12.0,50,0.00,,,0.00,Wunderground v.1.12,2013-02-18 19:14:00,
2013-02-18 14:15:00,22.9,19.1,30.13,WNW,293,0.0,2.0,85,0.00,,,0.06,Wunderground v.1.12,2013-02-18 19:15:00,
2013-02-18 14:20:00,40.6,22.9,29.88,SSE,162,8.0,8.0,49,0.00,,,0.00,Wunderground v.1.12,2013-02-18 19:20:00,
2013-02-18 14:25:00,40.6,22.4,29.88,SSE,160,6.0,10.0,48,0.00,,,0.00,Wunderground v.1.12,2013-02-18 19:25:00,
2013-02-18 14:30:00,40.6,22.9,29.87,South,180,6.0,9.0,49,0.00,,,0.00,Wunderground v.1.12,2013-02-18 19:30:00,
2013-02-18 14:35:00,40.8,23.1,29.87,SSW,193,5.0,11.0,49,0.00,,,0.00,Wunderground v.1.12,2013-02-18 19:35:00,
2013-02-18 14:40:00,22.9,19.1,30.13,WNW,293,0.0,2.0,85,0.00,,,0.06,Wunderground v.1.12,2013-02-18 19:40:00,
2013-02-18 14:41:00,41.1,23.4,29.87,SSE,162,14.0,14.0,49,0.00,,,0.00,Wunderground v.1.12,2013-02-18 19:41:00,
2013-02-18 14:45:00,23.2,19.6,30.13,WNW,293,0.0,2.0,86,0.00,,,0.06,Wunderground v.1.12,2013-02-18 19:45:00,
2013-02-18 14:46:00,41.1,23.4,29.86,South,171,3.0,13.0,49,0.00,,,0.00,Wunderground v.1.12,2013-02-18 19:46:00,
2013-02-18 14:50:00,23.2,19.6,30.13,WNW,293,0.0,2.0,86,0.00,,,0.06,Wunderground v.1.12,2013-02-18 19:50:00,
2013-02-18 14:51:00,41.3,23.6,29.86,South,179,10.0,13.0,49,0.00,,,0.00,Wunderground v.1.12,2013-02-18 19:51:00,
2013-02-18 14:55:00,23.2,19.6,30.13,WNW,293,0.0,2.0,86,0.00,,,0.06,Wunderground v.1.12,2013-02-18 19:55:00,
2013-02-18 14:56:00,41.5,23.7,29.86,South,175,8.0,10.0,49,0.00,,,0.00,Wunderground v.1.12,2013-02-18 19:56:00,
2013-02-18 15:00:00,23.2,19.6,30.13,WNW,293,0.0,2.0,86,0.00,,,0.06,Wunderground v.1.12,2013-02-18 20:00:00,
2013-02-18 15:01:00,41.6,24.3,29.85,SSE,163,5.0,8.0,50,0.00,,,0.00,Wunderground v.1.12,2013-02-18 20:01:00,
2013-02-18 15:05:00,23.2,19.6,30.13,WNW,293,0.0,2.0,86,0.00,,,0.06,Wunderground v.1.12,2013-02-18 20:05:00,
2013-02-18 15:06:00,41.9,24.6,29.85,SSW,200,8.0,11.0,50,0.00,,,0.00,Wunderground v.1.12,2013-02-18 20:06:00,
2013-02-18 15:10:00,23.2,19.6,30.13,WNW,293,0.0,2.0,86,0.00,,,0.06,Wunderground v.1.12,2013-02-18 20:10:00,
2013-02-18 15:11:00,42.1,24.8,29.84,SSE,167,3.0,7.0,50,0.00,,,0.00,Wunderground v.1.12,2013-02-18 20:11:00,
2013-02-18 15:15:00,22.1,18.6,30.14,WNW,293,0.0,2.0,86,0.00,,,0.06,Wunderground v.1.12,2013-02-18 20:15:00,
2013-02-18 15:16:00,42.2,24.9,29.84,South,177,3.0,8.0,50,0.00,,,0.00,Wunderground v.1.12,2013-02-18 20:16:00,
2013-02-18 15:20:00,22.1,18.6,30.14,WNW,293,0.0,2.0,86,0.00,,,0.06,Wunderground v.1.12,2013-02-18 20:20:00,
2013-02-18 15:21:00,42.3,25.4,29.84,SSE,159,6.0,11.0,51,0.00,,,0.00,Wunderground v.1.12,2013-02-18 20:21:00,
2013-02-18 15:25:00,22.1,18.6,30.14,WNW,293,0.0,2.0,86,0.00,,,0.06,Wunderground v.1.12,2013-02-18 20:25:00,
2013-02-18 15:26:00,42.3,25.4,29.83,SSE,165,2.0,6.0,51,0.00,,,0.00,Wunderground v.1.12,2013-02-18 20:26:00,
2013-02-18 15:30:00,22.1,18.6,30.14,WNW,293,0.0,2.0,86,0.00,,,0.06,Wunderground v.1.12,2013-02-18 20:30:00,
2013-02-18 15:31:00,42.5,26.1,29.83,SSE,158,3.0,8.0,52,0.00,,,0.00,Wunderground v.1.12,2013-02-18 20:31:00,
2013-02-18 15:35:00,22.1,18.6,30.14,WNW,293,0.0,2.0,86,0.00,,,0.06,Wunderground v.1.12,2013-02-18 20:35:00,
2013-02-18 15:36:00,42.6,25.7,29.83,South,178,6.0,10.0,51,0.00,,,0.00,Wunderground v.1.12,2013-02-18 20:36:00,
2013-02-18 15:40:00,22.1,18.6,30.14,WNW,293,0.0,2.0,86,0.00,,,0.06,Wunderground v.1.12,2013-02-18 20:40:00,
2013-02-18 15:41:00,42.8,25.9,29.83,SSE,150,6.0,6.0,51,0.00,,,0.00,Wunderground v.1.12,2013-02-18 20:41:00,
2013-02-18 15:45:00,21.0,17.7,30.14,N/A,-737280,0.0,0.0,87,0.00,,,0.06,Wunderground v.1.12,2013-02-18 20:45:00,
2013-02-18 15:46:00,42.8,25.9,29.83,SE,141,6.0,15.0,51,0.00,,,0.00,Wunderground v.1.12,2013-02-18 20:46:00,
2013-02-18 15:50:00,21.0,17.7,30.14,N/A,-737280,0.0,0.0,87,0.00,,,0.06,Wunderground v.1.12,2013-02-18 20:50:00,
2013-02-18 15:51:00,42.5,25.6,29.83,SSE,150,6.0,10.0,51,0.00,,,0.00,Wunderground v.1.12,2013-02-18 20:51:00,
2013-02-18 15:55:00,21.0,17.7,30.14,N/A,-737280,0.0,0.0,87,0.00,,,0.06,Wunderground v.1.12,2013-02-18 20:55:00,
2013-02-18 15:56:00,42.5,26.1,29.82,SE,134,6.0,9.0,52,0.00,,,0.00,Wunderground v.1.12,2013-02-18 20:56:00,
2013-02-18 16:00:00,21.0,17.7,30.14,N/A,-737280,0.0,0.0,87,0.00,,,0.06,Wunderground v.1.12,2013-02-18 21:00:00,
2013-02-18 16:02:00,42.3,25.9,29.82,SSE,167,4.0,13.0,52,0.00,,,0.00,Wunderground v.1.12,2013-02-18 21:02:00,
2013-02-18 16:05:00,21.0,17.7,30.14,N/A,-737280,0.0,0.0,87,0.00,,,0.06,Wunderground v.1.12,2013-02-18 21:05:00,
2013-02-18 16:07:00,42.2,26.3,29.82,SSW,210,1.0,12.0,53,0.00,,,0.00,Wunderground v.1.12,2013-02-18 21:07:00,
2013-02-18 16:10:00,21.0,17.7,30.14,N/A,-737280,0.0,0.0,87,0.00,,,0.06,Wunderground v.1.12,2013-02-18 21:10:00,
2013-02-18 16:12:00,42.2,26.3,29.81,SE,135,4.0,12.0,53,0.00,,,0.00,Wunderground v.1.12,2013-02-18 21:12:00,
2013-02-18 16:15:00,19.9,16.7,30.14,N/A,-737280,0.0,0.0,87,0.00,,,0.06,Wunderground v.1.12,2013-02-18 21:15:00,
2013-02-18 16:18:00,42.2,26.7,29.81,SE,146,4.0,10.0,54,0.00,,,0.00,Wunderground v.1.12,2013-02-18 21:18:00,
2013-02-18 16:20:00,19.9,16.7,30.14,N/A,-737280,0.0,0.0,87,0.00,,,0.06,Wunderground v.1.12,2013-02-18 21:20:00,
2013-02-18 16:23:00,42.2,26.7,29.81,SSE,161,5.0,11.0,54,0.00,,,0.00,Wunderground v.1.12,2013-02-18 21:23:00,
2013-02-18 16:25:00,19.9,16.7,30.14,N/A,-737280,0.0,0.0,87,0.00,,,0.06,Wunderground v.1.12,2013-02-18 21:25:00,
2013-02-18 16:28:00,42.1,27.1,29.81,SSE,153,11.0,11.0,55,0.00,,,0.00,Wunderground v.1.12,2013-02-18 21:28:00,
2013-02-18 16:30:00,19.9,16.7,30.14,N/A,-737280,0.0,0.0,87,0.00,,,0.06,Wunderground v.1.12,2013-02-18 21:30:00,
2013-02-18 16:33:00,41.9,26.9,29.81,SSE,153,7.0,8.0,55,0.00,,,0.00,Wunderground v.1.12,2013-02-18 21:33:00,
2013-02-18 16:35:00,19.9,16.7,30.14,N/A,-737280,0.0,0.0,87,0.00,,,0.06,Wunderground v.1.12,2013-02-18 21:35:00,
2013-02-18 16:38:00,41.9,27.3,29.81,SSE,150,6.0,8.0,56,0.00,,,0.00,Wunderground v.1.12,2013-02-18 21:38:00,
2013-02-18 16:40:00,19.9,16.7,30.14,N/A,-737280,0.0,0.0,87,0.00,,,0.06,Wunderground v.1.12,2013-02-18 21:40:00,
2013-02-18 16:44:00,41.8,27.2,29.79,SSE,154,4.0,13.0,56,0.00,,,0.00,Wunderground v.1.12,2013-02-18 21:44:00,
2013-02-18 16:45:00,19.4,16.2,30.14,N/A,-737280,0.0,0.0,87,0.00,,,0.06,Wunderground v.1.12,2013-02-18 21:45:00,
2013-02-18 16:49:00,41.6,27.9,29.79,SE,141,5.0,12.0,58,0.00,,,0.00,Wunderground v.1.12,2013-02-18 21:49:00,
2013-02-18 16:50:00,19.4,16.2,30.14,N/A,-737280,0.0,0.0,87,0.00,,,0.06,Wunderground v.1.12,2013-02-18 21:50:00,
2013-02-18 16:54:00,41.5,28.2,29.79,SSE,155,4.0,10.0,59,0.00,,,0.00,Wunderground v.1.12,2013-02-18 21:54:00,
2013-02-18 16:55:00,19.4,16.2,30.14,N/A,-737280,0.0,0.0,87,0.00,,,0.06,Wunderground v.1.12,2013-02-18 21:55:00,
2013-02-18 16:59:00,41.3,28.0,29.79,SSE,147,3.0,10.0,59,0.00,,,0.00,Wunderground v.1.12,2013-02-18 21:59:00,
2013-02-18 17:00:00,19.4,16.2,30.14,N/A,-737280,0.0,0.0,87,0.00,,,0.06,Wunderground v.1.12,2013-02-18 22:00:00,
2013-02-18 17:04:00,41.2,28.4,29.79,SE,135,7.0,11.0,60,0.00,,,0.00,Wunderground v.1.12,2013-02-18 22:04:00,
2013-02-18 17:05:00,19.4,16.2,30.14,N/A,-737280,0.0,0.0,87,0.00,,,0.06,Wunderground v.1.12,2013-02-18 22:05:00,
2013-02-18 17:09:00,41.1,28.7,29.79,SSE,154,3.0,8.0,61,0.00,,,0.00,Wunderground v.1.12,2013-02-18 22:09:00,
2013-02-18 17:10:00,19.4,16.2,30.14,N/A,-737280,0.0,0.0,87,0.00,,,0.06,Wunderground v.1.12,2013-02-18 22:10:00,
2013-02-18 17:14:00,40.9,28.5,29.78,SE,142,5.0,7.0,61,0.00,,,0.00,Wunderground v.1.12,2013-02-18 22:14:00,
2013-02-18 17:15:00,18.8,15.6,30.14,N/A,-737280,0.0,0.0,87,0.00,,,0.06,Wunderground v.1.12,2013-02-18 22:15:00,
2013-02-18 17:20:00,40.9,28.9,29.78,SE,139,2.0,5.0,62,0.00,,,0.00,Wunderground v.1.12,2013-02-18 22:20:00,
2013-02-18 17:25:00,40.9,28.9,29.78,SSE,152,5.0,6.0,62,0.00,,,0.00,Wunderground v.1.12,2013-02-18 22:25:00,
2013-02-18 17:30:00,41.1,29.1,29.77,SE,134,8.0,8.0,62,0.00,,,0.00,Wunderground v.1.12,2013-02-18 22:30:00,
2013-02-18 17:35:00,41.1,29.1,29.77,SE,140,5.0,6.0,62,0.00,,,0.00,Wunderground v.1.12,2013-02-18 22:35:00,
2013-02-18 17:40:00,41.2,29.5,29.77,SE,144,5.0,6.0,63,0.00,,,0.00,Wunderground v.1.12,2013-02-18 22:40:00,
2013-02-18 17:45:00,41.3,29.6,29.76,SE,146,6.0,6.0,63,0.00,,,0.00,Wunderground v.1.12,2013-02-18 22:45:00,
2013-02-18 17:50:00,41.5,29.8,29.76,SSE,149,6.0,6.0,63,0.00,,,0.00,Wunderground v.1.12,2013-02-18 22:50:00,
2013-02-18 17:55:00,18.3,15.3,30.13,N/A,-737280,0.0,0.0,88,0.00,,,0.06,Wunderground v.1.12,2013-02-18 22:55:00,
2013-02-18 17:56:00,41.5,29.8,29.76,SSE,148,5.0,7.0,63,0.00,,,0.00,Wunderground v.1.12,2013-02-18 22:56:00,
2013-02-18 18:00:00,18.3,15.3,30.13,N/A,-737280,0.0,0.0,88,0.00,,,0.06,Wunderground v.1.12,2013-02-18 23:00:00,
2013-02-18 18:01:00,41.6,30.3,29.76,SSE,150,5.0,11.0,64,0.00,,,0.00,Wunderground v.1.12,2013-02-18 23:01:00,
2013-02-18 18:05:00,41.6,30.3,29.76,SE,130,4.0,9.0,64,0.00,,,0.00,Wunderground v.1.12,2013-02-18 23:05:00,
2013-02-18 18:10:00,18.3,15.3,30.13,N/A,-737280,0.0,0.0,88,0.00,,,0.06,Wunderground v.1.12,2013-02-18 23:10:00,
2013-02-18 18:11:00,41.6,30.7,29.76,SSE,149,5.0,6.0,65,0.00,,,0.00,Wunderground v.1.12,2013-02-18 23:11:00,
2013-02-18 18:15:00,41.6,30.7,29.76,SE,139,6.0,6.0,65,0.00,,,0.00,Wunderground v.1.12,2013-02-18 23:15:00,
2013-02-18 18:20:00,41.5,31.0,29.76,SE,138,7.0,7.0,66,0.00,,,0.00,Wunderground v.1.12,2013-02-18 23:20:00,
2013-02-18 18:25:00,18.4,15.4,30.14,N/A,-737280,0.0,0.0,88,0.00,,,0.06,Wunderground v.1.12,2013-02-18 23:25:00,
2013-02-18 18:26:00,41.5,31.4,29.76,SSE,148,7.0,7.0,67,0.00,,,0.00,Wunderground v.1.12,2013-02-18 23:26:00,
2013-02-18 18:30:00,18.4,15.4,30.14,N/A,-737280,0.0,0.0,88,0.00,,,0.06,Wunderground v.1.12,2013-02-18 23:30:00,
2013-02-18 18:31:00,41.5,31.4,29.76,SSE,147,5.0,6.0,67,0.00,,,0.00,Wunderground v.1.12,2013-02-18 23:31:00,
2013-02-18 18:35:00,18.4,15.4,30.14,N/A,-737280,0.0,0.0,88,0.00,,,0.06,Wunderground v.1.12,2013-02-18 23:35:00,
2013-02-18 18:36:00,41.5,31.4,29.76,South,174,4.0,7.0,67,0.00,,,0.00,Wunderground v.1.12,2013-02-18 23:36:00,
2013-02-18 18:40:00,18.4,15.4,30.14,N/A,-737280,0.0,0.0,88,0.00,,,0.06,Wunderground v.1.12,2013-02-18 23:40:00,
2013-02-18 18:41:00,41.3,31.5,29.75,SSE,154,3.0,4.0,68,0.00,,,0.00,Wunderground v.1.12,2013-02-18 23:41:00,
2013-02-18 18:45:00,17.5,14.6,30.14,N/A,-737280,0.0,0.0,88,0.00,,,0.06,Wunderground v.1.12,2013-02-18 23:45:00,
2013-02-18 18:46:00,41.3,31.9,29.75,SSE,152,6.0,6.0,69,0.00,,,0.00,Wunderground v.1.12,2013-02-18 23:46:00,
2013-02-18 18:50:00,17.5,14.6,30.14,N/A,-737280,0.0,0.0,88,0.00,,,0.06,Wunderground v.1.12,2013-02-18 23:50:00,
2013-02-18 18:51:00,41.3,31.9,29.75,SSE,154,6.0,8.0,69,0.00,,,0.00,Wunderground v.1.12,2013-02-18 23:51:00,
2013-02-18 18:55:00,17.5,14.6,30.14,N/A,-737280,0.0,0.0,88,0.00,,,0.06,Wunderground v.1.12,2013-02-18 23:55:00,
2013-02-18 18:56:00,41.3,31.9,29.75,SSE,154,2.0,8.0,69,0.00,,,0.00,Wunderground v.1.12,2013-02-18 23:56:00,
2013-02-18 19:00:00,17.5,14.6,30.14,N/A,-737280,0.0,0.0,88,0.00,,,0.06,Wunderground v.1.12,2013-02-19 00:00:00,
2013-02-18 19:01:00,41.3,31.9,29.75,SSE,160,7.0,8.0,69,0.00,,,0.00,Wunderground v.1.12,2013-02-19 00:01:00,
2013-02-18 19:05:00,17.5,14.6,30.14,N/A,-737280,0.0,0.0,88,0.00,,,0.06,Wunderground v.1.12,2013-02-19 00:05:00,
2013-02-18 19:06:00,41.5,32.1,29.75,SSE,153,4.0,6.0,69,0.00,,,0.00,Wunderground v.1.12,2013-02-19 00:06:00,
2013-02-18 19:10:00,17.5,14.6,30.14,N/A,-737280,0.0,0.0,88,0.00,,,0.06,Wunderground v.1.12,2013-02-19 00:10:00,
2013-02-18 19:11:00,41.5,32.1,29.75,SSE,153,4.0,5.0,69,0.00,,,0.00,Wunderground v.1.12,2013-02-19 00:11:00,
2013-02-18 19:15:00,16.9,14.0,30.15,N/A,-737280,0.0,0.0,88,0.00,,,0.06,Wunderground v.1.12,2013-02-19 00:15:00,
2013-02-18 19:16:00,41.6,32.2,29.75,SSE,158,3.0,8.0,69,0.00,,,0.00,Wunderground v.1.12,2013-02-19 00:16:00,
2013-02-18 19:20:00,16.9,14.0,30.15,N/A,-737280,0.0,0.0,88,0.00,,,0.06,Wunderground v.1.12,2013-02-19 00:20:00,
2013-02-18 19:21:00,41.6,32.5,29.75,SSE,154,4.0,8.0,70,0.00,,,0.00,Wunderground v.1.12,2013-02-19 00:21:00,
2013-02-18 19:25:00,16.9,14.0,30.15,N/A,-737280,0.0,0.0,88,0.00,,,0.06,Wunderground v.1.12,2013-02-19 00:25:00,
2013-02-18 19:26:00,41.5,32.4,29.74,SSE,155,4.0,8.0,70,0.00,,,0.00,Wunderground v.1.12,2013-02-19 00:26:00,
2013-02-18 19:30:00,16.9,14.0,30.15,N/A,-737280,0.0,0.0,88,0.00,,,0.06,Wunderground v.1.12,2013-02-19 00:30:00,
2013-02-18 19:32:00,41.6,32.5,29.74,SSE,149,3.0,5.0,70,0.00,,,0.00,Wunderground v.1.12,2013-02-19 00:32:00,
2013-02-18 19:35:00,16.9,14.0,30.15,N/A,-737280,0.0,0.0,88,0.00,,,0.06,Wunderground v.1.12,2013-02-19 00:35:00,
2013-02-18 19:37:00,41.6,32.9,29.74,SSE,159,6.0,12.0,71,0.00,,,0.00,Wunderground v.1.12,2013-02-19 00:37:00,
2013-02-18 19:40:00,16.9,14.0,30.15,N/A,-737280,0.0,0.0,88,0.00,,,0.06,Wunderground v.1.12,2013-02-19 00:40:00,
2013-02-18 19:42:00,41.8,33.1,29.74,South,172,4.0,8.0,71,0.00,,,0.00,Wunderground v.1.12,2013-02-19 00:42:00,
2013-02-18 19:45:00,16.5,13.6,30.15,N/A,-737280,0.0,0.0,88,0.00,,,0.06,Wunderground v.1.12,2013-02-19 00:45:00,
2013-02-18 19:47:00,41.9,33.2,29.74,South,178,6.0,7.0,71,0.00,,,0.00,Wunderground v.1.12,2013-02-19 00:47:00,
2013-02-18 19:50:00,16.5,13.6,30.15,N/A,-737280,0.0,0.0,88,0.00,,,0.06,Wunderground v.1.12,2013-02-19 00:50:00,
2013-02-18 19:52:00,42.1,33.4,29.74,SSE,166,6.0,7.0,71,0.00,,,0.00,Wunderground v.1.12,2013-02-19 00:52:00,
2013-02-18 19:55:00,16.5,13.6,30.15,N/A,-737280,0.0,0.0,88,0.00,,,0.06,Wunderground v.1.12,2013-02-19 00:55:00,
2013-02-18 19:57:00,42.2,33.1,29.73,SE,146,4.0,11.0,70,0.00,,,0.00,Wunderground v.1.12,2013-02-19 00:57:00,
2013-02-18 20:00:00,16.5,13.6,30.15,N/A,-737280,0.0,0.0,88,0.00,,,0.06,Wunderground v.1.12,2013-02-19 01:00:00,
2013-02-18 20:02:00,42.3,33.2,29.73,SSE,159,3.0,10.0,70,0.00,,,0.00,Wunderground v.1.12,2013-02-19 01:02:00,
2013-02-18 20:05:00,16.5,13.6,30.15,N/A,-737280,0.0,0.0,88,0.00,,,0.06,Wunderground v.1.12,2013-02-19 01:05:00,
2013-02-18 20:07:00,42.6,33.1,29.73,SSE,153,3.0,11.0,69,0.00,,,0.00,Wunderground v.1.12,2013-02-19 01:07:00,
2013-02-18 20:10:00,16.5,13.6,30.15,N/A,-737280,0.0,0.0,88,0.00,,,0.06,Wunderground v.1.12,2013-02-19 01:10:00,
2013-02-18 20:12:00,42.9,33.1,29.72,South,173,4.0,8.0,68,0.00,,,0.00,Wunderground v.1.12,2013-02-19 01:12:00,
2013-02-18 20:15:00,15.9,13.0,30.16,N/A,-737280,0.0,0.0,88,0.00,,,0.06,Wunderground v.1.12,2013-02-19 01:15:00,
2013-02-18 20:17:00,43.2,33.0,29.72,SSE,158,6.0,12.0,67,0.00,,,0.00,Wunderground v.1.12,2013-02-19 01:17:00,
2013-02-18 20:20:00,15.9,13.0,30.16,N/A,-737280,0.0,0.0,88,0.00,,,0.06,Wunderground v.1.12,2013-02-19 01:20:00,
2013-02-18 20:22:00,43.6,33.0,29.72,South,174,5.0,10.0,66,0.00,,,0.00,Wunderground v.1.12,2013-02-19 01:22:00,
2013-02-18 20:25:00,15.9,13.0,30.16,N/A,-737280,0.0,0.0,88,0.00,,,0.06,Wunderground v.1.12,2013-02-19 01:25:00,
2013-02-18 20:27:00,44.1,33.1,29.71,SSW,203,6.0,8.0,65,0.00,,,0.00,Wunderground v.1.12,2013-02-19 01:27:00,
2013-02-18 20:30:00,15.9,13.0,30.16,N/A,-737280,0.0,0.0,88,0.00,,,0.06,Wunderground v.1.12,2013-02-19 01:30:00,
2013-02-18 20:32:00,44.3,32.9,29.71,South,175,6.0,10.0,64,0.00,,,0.00,Wunderground v.1.12,2013-02-19 01:32:00,
2013-02-18 20:35:00,15.9,13.0,30.16,N/A,-737280,0.0,0.0,88,0.00,,,0.06,Wunderground v.1.12,2013-02-19 01:35:00,
2013-02-18 20:37:00,44.5,32.7,29.71,South,179,4.0,8.0,63,0.00,,,0.00,Wunderground v.1.12,2013-02-19 01:37:00,
2013-02-18 20:40:00,15.9,13.0,30.16,N/A,-737280,0.0,0.0,88,0.00,,,0.06,Wunderground v.1.12,2013-02-19 01:40:00,
2013-02-18 20:42:00,44.5,32.7,29.69,SSE,157,6.0,7.0,63,0.00,,,0.00,Wunderground v.1.12,2013-02-19 01:42:00,
2013-02-18 20:45:00,16.2,13.3,30.18,WNW,293,0.0,2.0,88,0.00,,,0.06,Wunderground v.1.12,2013-02-19 01:45:00,
2013-02-18 20:48:00,44.5,32.7,29.69,South,170,4.0,15.0,63,0.00,,,0.00,Wunderground v.1.12,2013-02-19 01:48:00,
2013-02-18 20:50:00,16.2,13.3,30.18,WNW,293,0.0,2.0,88,0.00,,,0.06,Wunderground v.1.12,2013-02-19 01:50:00,
2013-02-18 20:53:00,44.3,32.5,29.69,South,169,3.0,13.0,63,0.00,,,0.00,Wunderground v.1.12,2013-02-19 01:53:00,
2013-02-18 20:55:00,16.2,13.3,30.18,WNW,293,0.0,2.0,88,0.00,,,0.06,Wunderground v.1.12,2013-02-19 01:55:00,
2013-02-18 20:58:00,44.2,32.4,29.68,SSE,163,4.0,8.0,63,0.00,,,0.00,Wunderground v.1.12,2013-02-19 01:58:00,
2013-02-18 21:00:00,16.2,13.3,30.18,WNW,293,0.0,2.0,88,0.00,,,0.06,Wunderground v.1.12,2013-02-19 02:00:00,
2013-02-18 21:03:00,44.2,32.4,29.68,SSE,166,5.0,6.0,63,0.00,,,0.00,Wunderground v.1.12,2013-02-19 02:03:00,
2013-02-18 21:05:00,16.2,13.3,30.18,WNW,293,0.0,2.0,88,0.00,,,0.06,Wunderground v.1.12,2013-02-19 02:05:00,
2013-02-18 21:09:00,44.2,32.4,29.68,SW,214,5.0,8.0,63,0.00,,,0.00,Wunderground v.1.12,2013-02-19 02:09:00,
2013-02-18 21:10:00,16.2,13.3,30.18,WNW,293,0.0,2.0,88,0.00,,,0.06,Wunderground v.1.12,2013-02-19 02:10:00,
2013-02-18 21:14:00,44.2,32.0,29.68,SSW,200,5.0,12.0,62,0.00,,,0.00,Wunderground v.1.12,2013-02-19 02:14:00,
2013-02-18 21:15:00,16.1,13.2,30.18,N/A,-737280,0.0,0.0,88,0.00,,,0.06,Wunderground v.1.12,2013-02-19 02:15:00,
2013-02-18 21:19:00,44.3,32.1,29.68,WSW,246,5.0,8.0,62,0.00,,,0.00,Wunderground v.1.12,2013-02-19 02:19:00,
2013-02-18 21:20:00,16.1,13.2,30.18,N/A,-737280,0.0,0.0,88,0.00,,,0.06,Wunderground v.1.12,2013-02-19 02:20:00,
2013-02-18 21:24:00,44.5,32.3,29.68,South,189,5.0,11.0,62,0.00,,,0.00,Wunderground v.1.12,2013-02-19 02:24:00,
2013-02-18 21:25:00,16.1,13.2,30.18,N/A,-737280,0.0,0.0,88,0.00,,,0.06,Wunderground v.1.12,2013-02-19 02:25:00,
2013-02-18 21:29:00,44.5,32.3,29.68,SSW,210,7.0,14.0,62,0.00,,,0.00,Wunderground v.1.12,2013-02-19 02:29:00,
2013-02-18 21:30:00,16.1,13.2,30.18,N/A,-737280,0.0,0.0,88,0.00,,,0.06,Wunderground v.1.12,2013-02-19 02:30:00,
2013-02-18 21:35:00,44.5,32.3,29.68,South,187,4.0,6.0,62,0.00,,,0.00,Wunderground v.1.12,2013-02-19 02:35:00,
2013-02-18 21:40:00,44.6,32.4,29.68,South,170,6.0,6.0,62,0.00,,,0.00,Wunderground v.1.12,2013-02-19 02:40:00,
2013-02-18 21:45:00,44.6,32.4,29.66,South,187,5.0,7.0,62,0.00,,,0.00,Wunderground v.1.12,2013-02-19 02:45:00,
2013-02-18 21:50:00,44.6,32.4,29.66,South,171,3.0,5.0,62,0.00,,,0.00,Wunderground v.1.12,2013-02-19 02:50:00,
2013-02-18 21:55:00,44.6,32.4,29.66,South,180,3.0,5.0,62,0.00,,,0.00,Wunderground v.1.12,2013-02-19 02:55:00,
2013-02-18 22:00:00,44.6,32.4,29.66,South,183,5.0,5.0,62,0.00,,,0.00,Wunderground v.1.12,2013-02-19 03:00:00,
2013-02-18 22:05:00,44.6,32.4,29.66,SSE,156,2.0,4.0,62,0.00,,,0.00,Wunderground v.1.12,2013-02-19 03:05:00,
2013-02-18 22:10:00,44.6,32.4,29.66,South,184,5.0,7.0,62,0.00,,,0.00,Wunderground v.1.12,2013-02-19 03:10:00,
2013-02-18 22:15:00,44.8,32.6,29.65,SSE,167,2.0,5.0,62,0.00,,,0.00,Wunderground v.1.12,2013-02-19 03:15:00,
2013-02-18 22:20:00,44.8,33.0,29.65,SSE,155,6.0,6.0,63,0.00,,,0.00,Wunderground v.1.12,2013-02-19 03:20:00,
2013-02-18 22:25:00,44.9,33.1,29.65,South,189,4.0,8.0,63,0.00,,,0.00,Wunderground v.1.12,2013-02-19 03:25:00,
2013-02-18 22:30:00,45.1,32.8,29.64,South,179,4.0,8.0,62,0.00,,,0.00,Wunderground v.1.12,2013-02-19 03:30:00,
2013-02-18 22:35:00,17.3,14.6,30.20,N/A,-737280,0.0,0.0,89,0.00,,,0.06,Wunderground v.1.12,2013-02-19 03:35:00,
2013-02-18 22:36:00,45.2,32.9,29.64,South,178,4.0,5.0,62,0.00,,,0.00,Wunderground v.1.12,2013-02-19 03:36:00,
2013-02-18 22:40:00,17.3,14.6,30.20,N/A,-737280,0.0,0.0,89,0.00,,,0.06,Wunderground v.1.12,2013-02-19 03:40:00,
2013-02-18 22:41:00,45.2,33.3,29.64,South,177,3.0,6.0,63,0.00,,,0.00,Wunderground v.1.12,2013-02-19 03:41:00,
2013-02-18 22:45:00,22.4,20.4,30.21,WNW,293,0.0,2.0,92,0.00,,,0.06,Wunderground v.1.12,2013-02-19 03:45:00,
2013-02-18 22:46:00,45.4,33.5,29.63,South,177,2.0,6.0,63,0.00,,,0.00,Wunderground v.1.12,2013-02-19 03:46:00,
2013-02-18 22:50:00,22.4,20.4,30.21,WNW,293,0.0,2.0,92,0.00,,,0.06,Wunderground v.1.12,2013-02-19 03:50:00,
2013-02-18 22:51:00,45.2,33.3,29.63,South,175,3.0,5.0,63,0.00,,,0.00,Wunderground v.1.12,2013-02-19 03:51:00,
2013-02-18 22:55:00,22.4,20.4,30.21,WNW,293,0.0,2.0,92,0.00,,,0.06,Wunderground v.1.12,2013-02-19 03:55:00,
2013-02-18 22:56:00,45.4,33.5,29.61,South,175,6.0,6.0,63,0.00,,,0.00,Wunderground v.1.12,2013-02-19 03:56:00,
2013-02-18 23:00:00,22.4,20.4,30.21,WNW,293,0.0,2.0,92,0.00,,,0.06,Wunderground v.1.12,2013-02-19 04:00:00,
2013-02-18 23:01:00,45.2,33.3,29.61,South,175,3.0,4.0,63,0.00,,,0.00,Wunderground v.1.12,2013-02-19 04:01:00,
2013-02-18 23:05:00,22.4,20.4,30.21,WNW,293,0.0,2.0,92,0.00,,,0.06,Wunderground v.1.12,2013-02-19 04:05:00,
2013-02-18 23:06:00,45.2,33.7,29.61,South,175,4.0,6.0,64,0.00,,,0.00,Wunderground v.1.12,2013-02-19 04:06:00,
2013-02-18 23:10:00,22.4,20.4,30.21,WNW,293,0.0,2.0,92,0.00,,,0.06,Wunderground v.1.12,2013-02-19 04:10:00,
2013-02-18 23:11:00,45.1,33.6,29.61,South,172,6.0,7.0,64,0.00,,,0.00,Wunderground v.1.12,2013-02-19 04:11:00,
2013-02-18 23:15:00,26.9,24.9,30.21,WNW,293,0.0,1.0,92,0.00,,,0.06,Wunderground v.1.12,2013-02-19 04:15:00,
2013-02-18 23:16:00,44.9,33.5,29.61,SSE,164,10.0,10.0,64,0.00,,,0.00,Wunderground v.1.12,2013-02-19 04:16:00,
2013-02-18 23:20:00,26.9,24.9,30.21,WNW,293,0.0,1.0,92,0.00,,,0.06,Wunderground v.1.12,2013-02-19 04:20:00,
2013-02-18 23:21:00,44.9,33.5,29.61,SSE,162,4.0,6.0,64,0.00,,,0.00,Wunderground v.1.12,2013-02-19 04:21:00,
2013-02-18 23:25:00,26.9,24.9,30.21,WNW,293,0.0,1.0,92,0.00,,,0.06,Wunderground v.1.12,2013-02-19 04:25:00,
2013-02-18 23:26:00,44.9,33.5,29.59,SSE,159,4.0,6.0,64,0.00,,,0.00,Wunderground v.1.12,2013-02-19 04:26:00,
2013-02-18 23:30:00,26.9,24.9,30.21,WNW,293,0.0,1.0,92,0.00,,,0.06,Wunderground v.1.12,2013-02-19 04:30:00,
2013-02-18 23:31:00,44.9,33.5,29.59,SSE,159,2.0,10.0,64,0.00,,,0.00,Wunderground v.1.12,2013-02-19 04:31:00,
2013-02-18 23:35:00,26.9,24.9,30.21,WNW,293,0.0,1.0,92,0.00,,,0.06,Wunderground v.1.12,2013-02-19 04:35:00,
2013-02-18 23:36:00,44.6,33.2,29.59,SE,144,5.0,8.0,64,0.00,,,0.00,Wunderground v.1.12,2013-02-19 04:36:00,
2013-02-18 23:40:00,26.9,24.9,30.21,WNW,293,0.0,1.0,92,0.00,,,0.06,Wunderground v.1.12,2013-02-19 04:40:00,
2013-02-18 23:41:00,44.5,33.1,29.59,South,171,6.0,6.0,64,0.00,,,0.00,Wunderground v.1.12,2013-02-19 04:41:00,
2013-02-18 23:45:00,29.7,26.9,30.21,WNW,293,0.0,3.0,89,0.00,,,0.06,Wunderground v.1.12,2013-02-19 04:45:00,
2013-02-18 23:47:00,44.3,32.9,29.59,SSE,167,5.0,8.0,64,0.00,,,0.00,Wunderground v.1.12,2013-02-19 04:47:00,
2013-02-18 23:50:00,29.7,26.9,30.21,WNW,293,0.0,3.0,89,0.00,,,0.06,Wunderground v.1.12,2013-02-19 04:50:00,
2013-02-18 23:52:00,44.3,33.3,29.59,SSE,162,4.0,11.0,65,0.00,,,0.00,Wunderground v.1.12,2013-02-19 04:52:00,
2013-02-18 23:55:00,29.7,26.9,30.21,WNW,293,0.0,3.0,89,0.00,,,0.06,Wunderground v.1.12,2013-02-19 04:55:00,
2013-02-18 23:57:00,44.3,33.3,29.59,SSE,164,3.0,11.0,65,0.00,,,0.00,Wunderground v.1.12,2013-02-19 04:57:00,